This is the latest recevied weather packets stored in our database for station/object K3RUP-1. If no packets are shown the sender has not sent any weather packets the latest 10 day(s).
| Time | Temp. | Humidity | Pressure | Rain* | Wind** | Luminosity | Snow |
|---|---|---|---|---|---|---|---|
| 1777574601 | 19.44° C | 43% | 1007 hPa | 0 mm | - | 711 W/m² | - |
| 1777574297 | 19.44° C | 45% | 1007 hPa | 0 mm | - | 180 W/m² | - |
| 1777573986 | 20° C | 44% | 1007 hPa | 0 mm | - | 163 W/m² | - |
| 1777573681 | 19.44° C | 47% | 1007.1 hPa | 0 mm | - | 737 W/m² | - |
| 1777573378 | 19.44° C | 43% | 1007 hPa | 0 mm | - | 243 W/m² | - |
| 1777573073 | 20° C | 47% | 1007.2 hPa | 0 mm | - | 161 W/m² | - |
| 1777572770 | 20° C | 49% | 1007 hPa | 0 mm | - | 740 W/m² | - |
| 1777572465 | 20° C | 48% | 1007 hPa | 0 mm | - | 231 W/m² | - |
| 1777572162 | 19.44° C | 46% | 1007.1 hPa | 0 mm | - | 257 W/m² | - |
| 1777571857 | 20° C | 49% | 1007.2 hPa | 0 mm | - | 176 W/m² | - |
| 1777571553 | 19.44° C | 47% | 1007.2 hPa | 0 mm | - | 790 W/m² | - |
| 1777571250 | 20° C | 45% | 1007.3 hPa | 0 mm | - | 184 W/m² | - |
| 1777570946 | 20.56° C | 46% | 1007.4 hPa | 0 mm | - | 238 W/m² | - |
| 1777570642 | 20.56° C | 43% | 1007.2 hPa | 0 mm | - | 792 W/m² | - |
| 1777570339 | 20° C | 45% | 1007.3 hPa | 0 mm | - | 780 W/m² | - |
| 1777570035 | 20.56° C | 47% | 1007.4 hPa | 0 mm | - | 757 W/m² | - |
| 1777569730 | 20.56° C | 44% | 1007.2 hPa | 0 mm | - | 689 W/m² | - |
| 1777569426 | 20.56° C | 47% | 1007.3 hPa | 0 mm | - | 703 W/m² | - |
| 1777569123 | 20.56° C | 44% | 1007.3 hPa | 0 mm | - | 697 W/m² | - |
| 1777568820 | 20° C | 44% | 1007.2 hPa | 0 mm | - | 681 W/m² | - |
| 1777568517 | 20° C | 48% | 1007.6 hPa | 0 mm | - | 664 W/m² | - |
| 1777568213 | 20° C | 46% | 1007.7 hPa | 0 mm | - | 691 W/m² | - |
| 1777567910 | 20° C | 48% | 1007.4 hPa | 0 mm | - | 217 W/m² | - |
| 1777567606 | 20° C | 47% | 1007.5 hPa | 0 mm | - | 699 W/m² | - |
| 1777567304 | 20° C | 49% | 1007.5 hPa | 0 mm | - | 652 W/m² | - |
* Rain latest hour (hover to see other rain measurements)
** Current wind speed in m/s (hover to see current wind gust speed)